View from above orbital plane
|
View from above satellite
|
Ground track
|
The orbit data is extracted from the following two-line orbital elements,
1 39251U 13048C 21025.70006676 .00000006 00000-0 -28351-4 0 9998
2 39251 82.4904 132.3778 0016047 181.5511 178.5521 12.42875811334480
Epoch (UTC): | 25 January 2021 16:48:05 |
Eccentricity: | 0.0016047 |
inclination: | 82.4904° |
perigee height: | 1482 km |
apogee height: | 1507 km |
right ascension of ascending node: | 132.3778° |
argument of perigee: | 181.5511° |
revolutions per day: | 12.42875811 |
mean anomaly at epoch: | 178.5521° |
orbit number at epoch: | 33448 |
The dashed part of the orbit path shows where the satellite is in the earth's shadow,
|
|